Alfred, NY

9:33 PM EST on February 01, 2015 (GMT -0500)
Ardachy Farm | Change Station
CLOSE
Current Station
Personal Weather Station
Location: Alfred Station, NY
Elevation: 1877 ft
Nearby Weather Stations
Active Advisory: Winter Storm Warning

Elev 1877 ft 42.28 °N, 77.77 °W | Updated 20 seconds ago

Snow
Snow
13.8 °F
Feels Like 5 °F
N
6.0
Wind Variable Wind from NE
Gusts 6.0 mph

Today
High -- | Low -- °F
--% Chance of Precip.
Yesterday
High -- | Low -- °F
Precip. -- in
7:24 AM 5:25 PM
Waxing Gibbous, 97% visible
Pressure 29.87 in
Visibility 4.0 miles
Clouds Overcast 2500 ft
Windchill 5 °F
Dew Point 12 °F
Humidity 92%
Rainfall 0.00 in
Snow Depth Not available.
UV 0 out of 12
Pollen .10 out of 12
Air Quality Not available.
Flu Activity Not available.
METAR KELZ 020156Z AUTO 12011G16KT 4SM -SN BR OVC025 M07/M09 A2977 RMK AO2 PRESFR SLP113 P0002 T10721094

More Conditions Fewer Conditions

Pressure 29.87 in
Visibility 4.0 miles
Clouds Overcast 2500 ft
Windchill 5 °F
Dew Point 12 °F
Humidity 92%
Rainfall 0.00 in
Snow Depth Not available.
UV 0 out of 12
Pollen .10 out of 12
Air Quality Not available.
Flu Activity Not available.
METAR KELZ 020156Z AUTO 12011G16KT 4SM -SN BR OVC025 M07/M09 A2977 RMK AO2 PRESFR SLP113 P0002 T10721094

More Conditions Fewer Conditions

10-Day Weather Forecast

Almanac

Astronomy

Feb. 01, 2015 Rise Set
Actual Time
Civil Twilight
Nautical Twilight
Astronomical Twilight
Moon
Length of Visible Light
Length of Day
Tomorrow will be .
, % of the Moon is Illuminated

Today's Extremes

State Highs State Lows

Community

WunderPhotos

Upload Photos

1,792,659 photos uploaded!

WunderBlogs® & News

Nearby

Air Quality

  Air Quality AQ Index Pollutant
Not available.

Snow Depth

Station Depth Elevation

Earthquake Activity

City Distance Mag. Time & Date
Minimum magnitude displayed is 2.5.

Coastal Water Temperatures

Place Temperature

Nearby Weather Stations